Content
SEND FEEDBACK

Daily
Averages
Monthly
Summary
Mexico

PUEBLA, PUEBLA


Home > North America > Mexico > Puebla
Elevation: 7104 feet     Latitude: 19 02N     Longitude: 098 12W

WEATHER
 
SELECT A DAY
Number of Records: 121,150;   Date Range: 1/1/95 - 9/15/14
 
SHARE

PRINT THIS DATA

[ ← Previous Day ]
WEATHER ALMANAC - FEBRUARY 16, 2013
[ Next Day → ]
[ °C ]   °F
Weather ElementAverageHighLow
Temperature55.3 °F70 °F (2:40 pm)42.8 °F (11:40 pm)
Dewpoint38.7 °F42.8 °F (8:45 am)35 °F (5:40 pm)
Humidity53.6 %81 % (6:01 am)22 % (2:40 pm)
Barometer30.27 in30.45 in (9:44 am)29.86 in (5:40 pm)
Wind Speed7.8 mph15 mph (8:45 am)
Weather ElementAverage
Visibility8 mi
Wind DirectionSSW (210 °)

Weather ElementTotal
Precipitation---
Heating Degree Days8.6 (Base 65)
Growing Degree Days6.4 (Base 50)
Averaged from 26 records on February 16, 2013
WEATHER CONDITIONS BREAKOUT
WIND DIRECTION BREAKOUT
WEATHER BY HOUR - FEBRUARY 16, 2013
[ °C ]   °F
Local TimeTemperatureDewpointHumidityBarometerVisibilityWind DirectionWind SpeedGust SpeedPrecipitationEventsConditions
5:56 AM47.0 °F40.0 °F69 %29.91 in3.0 miWNW (300°)2.2 mph
6:01 AM44.6 °F39.2 °F81 %30.36 in8.0 miWNW (300°)8.1 mphClear
6:41 AM44.6 °F39.2 °F81 %30.38 in8.0 miWNW (300°)9.2 mphMostly Cloudy
7:44 AM46.4 °F39.2 °F76 %30.40 in8.0 miNW (320°)8.1 mphMostly Cloudy
8:45 AM55.4 °F42.8 °F63 %30.43 in8.0 miNorth (360°)15.0 mphMostly Cloudy
8:50 AM52.0 °F40.0 °F55 %30.07 in3.0 miWest (270°)2.2 mphHaze
9:44 AM57.2 °F42.8 °F59 %30.45 in9.0 miNNE (20°)15.0 mphMostly Cloudy
10:48 AM60.8 °F42.8 °F52 %30.44 in10.0 miNorth (360°)15.0 mphMostly Cloudy
11:47 AM60.8 °F39.2 °F45 %30.42 in10.0 miNorth (360°)12.7 mphMostly Cloudy
11:50 AM63.0 °F40.0 °F30 %30.07 in3.0 miWSW (240°)2.2 mphHaze
12:44 PM68.0 °F37.4 °F33 %30.39 in10.0 miNorth (10°)5.8 mphMostly Cloudy
1:40 PM66.2 °F37.4 °F35 %30.36 in10.0 miNW (320°)8.1 mphMostly Cloudy
2:40 PM70.0 °F40.0 °F22 %29.93 in6.0 miWest (270°)2.2 mphHaze
2:45 PM69.8 °F37.4 °F31 %30.32 in10.0 miNorth (350°)5.8 mphMostly Cloudy
3:45 PM66.2 °F39.2 °F37 %30.30 in10.0 miNE (40°)9.2 mphMostly Cloudy
4:44 PM64.4 °F39.2 °F40 %30.29 in10.0 miENE (60°)13.8 mphMostly Cloudy
5:40 PM61.0 °F35.0 °F26 %29.86 in6.0 miNE (50°)13.4 mphHaze
5:42 PM57.2 °F39.2 °F51 %30.32 in10.0 miNE (40°)10.4 mphMostly Cloudy
6:40 PM53.6 °F39.2 °F58 %30.34 in10.0 miNE (40°)6.9 mphMostly Cloudy
7:43 PM50.0 °F37.4 °F62 %30.38 in10.0 miNorth (360°)10.4 mphMostly Cloudy
8:40 PM48.2 °F37.4 °F66 %30.40 in10.0 miNorth (350°)6.9 mphMostly Cloudy
8:50 PM51.0 °F35.0 °F43 %29.96 in3.0 miNNE (20°)2.2 mph
9:43 PM46.4 °F37.4 °F71 %30.41 in10.0 miNorth (10°)6.9 mphScattered Clouds
10:41 PM44.6 °F37.4 °F76 %30.41 in10.0 miNorth (360°)3.5 mphPartly Cloudy
11:40 PM42.8 °F35.6 °F76 %30.41 in10.0 miNNW (330°)4.6 mphPartly Cloudy
11:50 PM47.0 °F36.0 °F55 %30.02 in3.0 miNNE (20°)2.2 mph
Hourly data recorded from MMPB, located miles away from Puebla, Puebla







STORIES FROM OUR PARTNERS